Regional Weather Roundup
Issued by NWS

Home | Current Version | Previous Version | Graphics & Text | Print | Product List | Glossary Off
Versions: 1 2 3 4 5 6 7 8 9 10 11 12 13 14 15 16 17 18 19 20 21 22 23 24 25 26 27 28 29 30 31 32 33 34 35 36 37 38 39 40 41 42 43 44 45 46 47 48 49 50

000
ASUS43 KDMX 282104
RWRIA

WEATHER ROUNDUP FOR IOWA
NATIONAL WEATHER SERVICE DES MOINES IA
  ISSUED BY NWS QUAD CITIES IA IL
300 PM CST SAT FEB 28 2015

NOTE: "FAIR" INDICATES FEW OR NO CLOUDS BELOW 12,000 FEET WITH NO
SIGNIFICANT WEATHER AND/OR OBSTRUCTIONS TO VISIBILITY.

* - THESE STATIONS ARE NOT NWS STATIONS...THUS NOT UNDER NWS
QUALITY CONTROL.  THEY ALSO DO NOT REPORT WEATHER SUCH
AS PRECIPITATION OR FOG.

IAZ001>003-012>014-020>022-031>034-043>046-282200-
   NORTHWEST IOWA

CITY           SKY/WX    TMP DP  RH WIND       PRES   REMARKS
CARROLL *      PTSUNNY   23  12  63 S14       30.37F WCI  11
CHEROKEE *     MOCLDY    22  13  68 S14       30.33F WCI   9
DENNISON *     MOSUNNY   23  12  63 S15G22    30.34S WCI  10
LE MARS *      CLOUDY    25  16  68 S17G24    30.31F WCI  11
ORANGE CITY *  CLOUDY    25  14  63 S20       30.29F WCI  11
SHELDON *      CLOUDY    21  12  68 S17G25    30.28F WCI   7
SIOUX CITY     CLOUDY    27  14  58 S15       30.32F WCI  15
SPENCER        PTSUNNY   21  10  62 S18       30.32F WCI   6
STORM LAKE *   CLOUDY    19  12  73 S16       30.33F WCI   5
$$

IAZ055>058-069>071-079>083-090>094-282200-
   SOUTHWEST IOWA

CITY           SKY/WX    TMP DP  RH WIND       PRES   REMARKS
ATLANTIC *     PTSUNNY   21  18  86 S9        30.38F HAZE    WCI  11
AUDUBON *      LGT SNOW  23  14  68 S10       30.37F WCI  12
CLARINDA *     CLOUDY    23  18  80 S7        30.42F HAZE    WCI  15
COUNCIL BLFS * LGT SNOW  21  19  93 S8        30.36F WCI  12
CRESTON *      CLOUDY    21  16  79 S8        30.39F HAZE    WCI  12
HARLAN *       MOSUNNY   21  19  93 S13       30.40F FOG     WCI   9
LAMONI         LGT SNOW  22  15  75 S8        30.41S WCI  12
RED OAK *      LGT SNOW  23  18  80 S8        30.40S WCI  14
SHENANDOAH *   LGT SNOW  23  19  86 S7        30.41F WCI  15
$$

IAZ047>049-059>061-072>074-084-282200-
   CENTRAL IOWA

CITY           SKY/WX    TMP DP  RH WIND       PRES   REMARKS
AMES           CLOUDY    20   9  62 SE10      30.43F WCI   9
ANKENY *       MIX PCPN  23  12  63 SE9       30.43F WCI  13
BOONE *        CLOUDY    21  12  68 SE10      30.39F WCI  10
CHARITON *     LGT SNOW  23  16  74 S9        30.42F WCI  13
DES MOINES     LGT SNOW  23  12  62 S10       30.43F WCI  12
GRINNELL *     MOCLDY    19  10  65 E12       30.44F WCI   7
KNOXVILLE *    MIX PCPN  23  14  68 S12       30.42F WCI  12
MARSHALLTOWN   PTSUNNY   17   7  64 SE9       30.43F WCI   6
NEWTON *       PTSUNNY   19   9  63 E10       30.44F WCI   8
PELLA *        PTSUNNY   24  16  70 S8        30.46S HAZE    WCI  16
PERRY *          N/A     23  13  68 S9        30.41S WCI  13
$$

IAZ004>006-015-016-023>025-035-036-282200-
   NORTH CENTRAL IOWA

CITY           SKY/WX    TMP DP  RH WIND       PRES   REMARKS
ALGONA *       SUNNY     19   9  63 S17       30.37F WCI   4
CLARION *      SUNNY     18  10  73 SE15      30.39F WCI   3
ESTHERVILLE    SUNNY     18   9  68 S20       30.33F WCI   2
FORT DODGE *   CLOUDY    21   9  58 S12G21    30.40F WCI   9
MASON CITY     CLOUDY    13   4  67 SE13      30.42F WCI  -2
FOREST CITY *  FAIR      18   5  57 SE15      30.39F WCI   3
WEBSTER CITY * MOSUNNY   19   9  63 S13       30.38F WCI   7
IOWA FALLS *   FAIR      17   6  63 SE10      30.43F HAZE    WCI   4
$$

IAZ007>011-017>019-026>030-037>042-050>054-066-282200-
   NORTHEAST IOWA

CITY           SKY/WX    TMP DP  RH WIND       PRES   REMARKS
CEDAR RAPIDS   PTSUNNY   16   5  62 E10       30.49F WCI   4
CHARLES CITY * CLOUDY    12   1  62 SE10      30.45F WCI  -1
CLINTON *      SUNNY     18   1  49 S7        30.58F WCI   8
DECORAH *      SUNNY     14  -2  48 SE12      30.47F WCI   0
DUBUQUE        PTSUNNY   13   1  59 S8        30.51F WCI   2
MONTICELLO *   PTSUNNY   14   1  57 S12       30.53F WCI   0
OELWEIN *      CLOUDY    12   3  67 SE13      30.49F WCI  -3
WATERLOO       PTSUNNY   15   2  56 S10       30.48F WCI   2
$$

IAZ064-065-067-068-078-282200-
   EAST CENTRAL IOWA

CITY           SKY/WX    TMP DP  RH WIND       PRES   REMARKS
DAVENPORT      SUNNY     18   0  45 S7        30.54F WCI   9
IOWA CITY      PTSUNNY   17   3  54 E6        30.53F WCI   9
MT. PLEASANT * CLOUDY    22   4  46 S10       30.50F WCI  11
MUSCATINE *    PTSUNNY   21   3  45 E7        30.54F WCI  13
QUAD CITIES    PTSUNNY   18   3  52 E8        30.54F WCI   8
$$

IAZ062-063-075>077-085>089-095>099-282200-
   SOUTHEAST IOWA

CITY           SKY/WX    TMP DP  RH WIND       PRES   REMARKS
BURLINGTON     LGT SNOW  19   9  65 E7        30.51F WCI  10
FAIRFIELD *    PTSUNNY   21   5  49 SE13      30.48F WCI   9
FORT MADISON * LGT SNOW  19  10  68 SE5       30.51S WCI  13
KEOKUK *       PTSUNNY   21  12  68 SE8       30.50F HAZE    WCI  12
OSKALOOSA *    CLOUDY    22  13  67 S14       30.47S WCI   9
CENTERVILLE *  FLURRIES  23  18  80 SE9       30.44F WCI  13
OTTUMWA        LGT SNOW  20  12  71 S9        30.46F WCI   9
WASHINGTON *   PTSUNNY   19   9  63 E12       30.50F WCI   7
$$

ABBREVIATIONS USED IN REMARKS
   TC - TEMPERATURES IN CELSIUS
  WCI - WIND CHILL INDEX
   HX - HEAT INDEX
  VSB - VISIBILITY
$$



USA.gov is the U.S. government's official web portal to all federal, state and local government web resources and services.